Location: Pointed Rock Observatory
(32.4532°N, 111.0636°W)
Time: 18:24:04
(UTC-07:00)

OTV 5 (USA 277) - Visible Passes

Search period start: 19 July 2018 00:00
Search period end: 29 July 2018 00:00
Orbit: 312 x 321 km, 54.5° (Epoch: 05 July)

Date Brightness Start Highest point End Pass type
(mag) Time Alt. Az. Time Alt. Az. Time Alt. Az.
24 Jul ? 04:58:42 10° SSE 05:00:25 16° SE 05:02:09 10° E visible
27 Jul ? 04:08:47 25° SSE 04:09:24 28° SE 04:11:47 10° ENE visible
28 Jul ? 04:23:00 40° WSW 04:23:46 66° NW 04:26:27 10° NE visible
